Location: Unspecified
(47.1121°N, 116.3927°W)
Time: 12:25:48
(UTC-07:00)

ISS - Visible Passes

Search period start: 19 May 2019 00:00
Search period end: 29 May 2019 00:00
Orbit: 407 x 410 km, 51.6° (Epoch: 20 May)

Date Brightness Start Highest point End Pass type
(mag) Time Alt. Az. Time Alt. Az. Time Alt. Az.
19 May -2.2 00:48:35 10° WNW 00:51:41 36° N 00:54:47 10° ENE visible
19 May -3.7 02:25:16 10° WNW 02:28:35 74° NNE 02:31:53 10° ESE visible
19 May -2.6 04:02:15 10° W 04:04:53 22° SW 04:07:31 10° SSE visible
19 May -3.6 22:20:28 10° WSW 22:23:46 73° NNW 22:27:04 10° ENE visible
19 May -2.2 23:57:34 10° WNW 00:00:40 36° N 00:03:46 10° ENE visible
20 May -3.1 01:34:23 10° WNW 01:37:38 53° NNE 01:40:54 10° E visible
20 May -3.3 03:11:04 10° WNW 03:14:09 36° SW 03:17:12 10° SSE visible
20 May -3.9 21:29:35 10° WSW 21:32:51 76° SSE 21:36:10 10° ENE visible
20 May -2.3 23:06:30 10° W 23:09:38 39° N 23:12:46 10° ENE visible
21 May -2.6 00:43:28 10° WNW 00:46:39 42° NNE 00:47:36 32° NE visible
21 May -1.1 02:20:04 10° WNW 02:20:14 11° WNW 02:20:14 11° WNW visible
21 May -2.7 22:15:25 10° W 22:18:36 46° NNW 22:21:50 10° ENE visible
21 May -2.3 23:52:29 10° WNW 23:55:37 37° N 23:57:39 18° ENE visible
22 May -1.8 01:29:07 10° WNW 01:30:20 21° WNW 01:30:20 21° WNW visible
22 May -3.2 21:24:21 10° WSW 21:27:37 61° NNW 21:30:54 10° ENE visible
22 May -2.2 23:01:28 10° WNW 23:04:33 35° N 23:07:39 10° ENE visible
23 May -2.9 00:38:12 10° WNW 00:40:45 46° NW 00:40:45 46° NW visible
23 May -2.2 22:10:23 10° WNW 22:13:29 37° N 22:16:36 10° ENE visible
23 May -2.9 23:47:16 10° WNW 23:50:29 47° NNE 23:51:16 38° ENE visible
24 May -1.0 01:23:53 10° WNW 01:23:58 10° WNW 01:23:58 10° WNW visible
24 May -2.5 21:19:15 10° W 21:22:25 42° NNW 21:25:35 10° ENE visible
24 May -2.5 22:56:17 10° WNW 22:59:26 39° N 23:01:50 15° ENE visible
25 May -2.1 00:32:53 10° WNW 00:34:32 27° WNW 00:34:32 27° WNW visible
25 May -2.3 22:05:15 10° WNW 22:08:21 36° N 22:11:26 10° ENE visible
25 May -3.7 23:41:54 10° WNW 23:45:09 74° N 23:45:09 74° N visible
26 May -2.2 21:14:08 10° WNW 21:17:14 36° N 21:20:19 10° ENE visible
26 May -3.2 22:50:56 10° WNW 22:54:11 53° NNE 22:55:47 26° E visible
27 May -1.4 00:27:38 10° WNW 00:28:29 16° W 00:28:29 16° W visible
27 May -2.7 21:59:57 10° WNW 22:03:07 42° NNE 22:06:18 10° E visible
27 May -3.2 23:36:32 10° WNW 23:39:09 46° W 23:39:09 46° W visible
28 May -2.4 21:08:54 10° WNW 21:12:00 37° N 21:15:07 10° ENE visible
28 May -3.9 22:45:31 10° WNW 22:48:49 89° WNW 22:49:49 42° ESE visible
